TimePDT,TemperatureF,Dew PointF,Humidity,Sea Level PressureIn,VisibilityMPH,Wind Direction,Wind SpeedMPH,Gust SpeedMPH,PrecipitationIn,Events,Conditions,WindDirDegrees,DateUTC
12:15 AM,-9999,-9999,N/A,-9999,-9999.0,North,-9999.0,-,N/A,,Unknown,0,2011-11-02 07:15:00
12:54 AM,71.1,16.0,12,29.97,9.0,ENE,21.9,28.8,N/A,,Clear,60,2011-11-02 07:54:00
1:54 AM,72.0,10.9,10,29.98,10.0,ENE,27.6,36.8,N/A,,Clear,60,2011-11-02 08:54:00
2:54 AM,72.0,9.0,9,29.99,10.0,ENE,21.9,41.4,N/A,,Clear,60,2011-11-02 09:54:00
3:54 AM,71.1,7.0,8,29.99,10.0,ENE,21.9,36.8,N/A,,Clear,60,2011-11-02 10:54:00
4:02 AM,-9999,-9999,N/A,-9999,-9999.0,North,-9999.0,-,N/A,,Unknown,0,2011-11-02 11:02:00
4:54 AM,70.0,6.1,8,29.99,10.0,ENE,25.3,41.4,N/A,,Clear,60,2011-11-02 11:54:00
5:15 AM,-9999,-9999,N/A,-9999,-9999.0,North,-9999.0,-,N/A,,Unknown,0,2011-11-02 12:15:00
5:54 AM,69.1,3.9,8,30.01,7.0,ENE,24.2,36.8,N/A,,Clear,60,2011-11-02 12:54:00
6:54 AM,68.0,-0.0,7,30.04,7.0,ENE,24.2,38.0,N/A,,Clear,60,2011-11-02 13:54:00
7:54 AM,68.0,-0.0,7,30.06,7.0,ENE,24.2,41.4,N/A,,Clear,60,2011-11-02 14:54:00
8:54 AM,69.1,1.0,7,30.09,7.0,ENE,25.3,39.1,N/A,,Clear,60,2011-11-02 15:54:00
9:54 AM,71.1,3.0,7,30.10,10.0,ENE,31.1,40.3,N/A,,Clear,60,2011-11-02 16:54:00
10:54 AM,73.9,5.0,7,30.10,7.0,ENE,28.8,40.3,N/A,,Clear,60,2011-11-02 17:54:00
11:54 AM,75.9,6.1,7,30.08,7.0,ENE,31.1,42.6,N/A,,Clear,60,2011-11-02 18:54:00
12:54 PM,77.0,7.0,7,30.06,7.0,ENE,26.5,40.3,N/A,,Clear,60,2011-11-02 19:54:00
1:54 PM,77.0,8.1,7,30.04,7.0,NE,24.2,38.0,N/A,,Clear,50,2011-11-02 20:54:00
2:54 PM,79.0,10.9,8,30.03,7.0,ENE,19.6,28.8,N/A,,Clear,60,2011-11-02 21:54:00
3:54 PM,78.1,10.0,7,30.02,7.0,ENE,18.4,28.8,N/A,,Clear,60,2011-11-02 22:54:00
4:54 PM,75.9,10.9,8,30.02,7.0,ENE,19.6,-,N/A,,Clear,60,2011-11-02 23:54:00
5:54 PM,73.0,10.0,9,30.03,7.0,ENE,17.3,-,N/A,,Clear,70,2011-11-03 00:54:00
6:54 PM,69.1,9.0,10,30.03,7.0,ENE,13.8,-,N/A,,Clear,60,2011-11-03 01:54:00
7:54 PM,69.1,9.0,10,30.03,7.0,ENE,16.1,-,N/A,,Clear,60,2011-11-03 02:54:00
8:54 PM,68.0,8.1,10,30.03,7.0,ENE,17.3,-,N/A,,Clear,60,2011-11-03 03:54:00
9:54 PM,66.9,9.0,10,30.04,7.0,ENE,13.8,24.2,N/A,,Clear,60,2011-11-03 04:54:00
10:54 PM,66.9,9.0,10,30.04,7.0,ENE,16.1,-,N/A,,Clear,60,2011-11-03 05:54:00
11:54 PM,66.0,7.0,10,30.04,10.0,ENE,16.1,-,N/A,,Clear,70,2011-11-03 06:54:00